User: anonymous   Login
Location: Unspecified
(0.0000°N, 0.0000°E)
Time: 18:51:36
(UTC+00:00)
Language:

LAPAN-TUBSAT - Orbit

View from above orbital plane
View from above orbital plane
View from above satellite
View from above satellite

Ground track
Ground track

The orbit data is extracted from the following two-line orbital elements,

1 29709U 07001A   19085.50207679  .00000009  00000-0  76878-5 0  9994
2 29709  97.7973  49.8484 0013758 131.3856 228.8533 14.82166055659862
Epoch (UTC): 26 March 2019 12:02:59
Eccentricity: 0.0013758
inclination: 97.7973°
perigee height: 613 km
apogee height: 632 km
right ascension of ascending node: 49.8484°
argument of perigee: 131.3856°
revolutions per day: 14.82166055
mean anomaly at epoch: 228.8533°
orbit number at epoch: 65986

The dashed part of the orbit path shows where the satellite is in the earth's shadow,  

DLR